Regional Weather Roundup
Issued by NWS

Home | Current Version | Previous Version | Graphics & Text | Print | Product List | Glossary On
Versions: 1 2 3 4 5 6 7 8 9 10 11 12 13 14 15 16 17 18 19 20 21 22 23 24 25 26 27 28 29 30 31 32 33 34 35 36 37 38 39 40 41 42 43 44 45 46 47 48 49 50
000
ASUS43 KIND 211700
RWRIN

WEATHER ROUNDUP FOR INDIANA
NATIONAL WEATHER SERVICE INDIANAPOLIS IN
100 PM EDT SAT OCT 21 2017

NOTE: "FAIR" INDICATES FEW OR NO CLOUDS BELOW 12,000 FEET WITH NO
SIGNIFICANT WEATHER AND/OR OBSTRUCTIONS TO VISIBILITY.

* - STATION DOES NOT REPORT WEATHER SUCH AS PRECIPITATION OR FOG.

+ - STATION NOT QUALITY CONTROLLED BY THE NATIONAL WEATHER SERVICE.
    USE DATA WITH CAUTION...ESPECIALLY DEWPOINT AND RELATIVE
    HUMIDITY OBSERVATIONS.

INZ001>003-010>013-019-020-211800-
NORTHWEST INDIANA

CITY           SKY/WX    TMP DP  RH WIND       PRES   REMARKS
GARY /AIRPORT/ PTSUNNY   72  50  46 S8G21     30.10S
MONTICELLO +   CLOUDY    69  50  50 S7        30.15S
RENSSELAER +   PTSUNNY   72  43  35 S15       30.14R

$$

LMZ046-743>745-211800-
SOUTHERN LAKE MICHIGAN

STATION/POSITION TIME  TEMP    WIND        PRES    WAVE
                       AIR SEA DIR/SP/G            HT
                 (UTC) (F)     (DEG/KT/KT) (MB)    (FT)
BURNS HARBOR     1640   69     190/ 12/ 15 1019.6S
MICHIGAN CITY    1630   68     160/ 10/ 12   N/A
5NW MICH CITY    1650   64 58  180/ 10/ 14   N/A     1

$$

INZ004-005-014>016-021>024-211800-
NORTH CENTRAL INDIANA

CITY           SKY/WX    TMP DP  RH WIND       PRES   REMARKS
GOSHEN         PTSUNNY   70  46  42 S15       30.16F
PERU/GRISSOM   MOSUNNY   71  50  47 S15       30.17F
SOUTH BEND     PTSUNNY   70  49  47 S14G26    30.13F

$$

INZ006>009-017-018-025>027-211800-
NORTHEAST INDIANA

CITY           SKY/WX    TMP DP  RH WIND       PRES   REMARKS
FORT WAYNE     PTSUNNY   70  47  43 S15       30.20F
KENDALLVILLE + PTSUNNY   70  50  48 S9        30.19F

$$

INZ028-029-035-036-043>045-051>053-211800-
WEST CENTRAL INDIANA

CITY           SKY/WX    TMP DP  RH WIND       PRES   REMARKS
LAFAYETTE      PTSUNNY   69  52  54 S12G20    30.15S
TERRE HAUTE    CLOUDY    69  51  52 S10       30.17S

$$

INZ030>032-037>040-046>048-054>057-064-065-211800-
CENTRAL INDIANA

CITY           SKY/WX    TMP DP  RH WIND       PRES   REMARKS
ANDERSON       CLOUDY    68  48  49 S10       30.22S
COLUMBUS       SUNNY    N/A N/A N/A S12       30.23S
GREENWOOD *+   CLOUDY    72  51  47 S8        30.21F
INDIANAPOLIS   CLOUDY    67  52  58 S9        30.20S
-EAGLE CREEK   CLOUDY    66  52  60 SE5       30.19F
KOKOMO +       PTSUNNY   68  50  52 S13       30.20S
MT COMFORT *+  CLOUDY    68  54  60 S7        30.21F
SHELBYVILLE    CLOUDY    68  48  48 S10       30.21S

$$

INZ033-034-041-042-049-050-058-059-211800-
EAST CENTRAL INDIANA

CITY           SKY/WX    TMP DP  RH WIND       PRES   REMARKS
MUNCIE         PTSUNNY   73  45  36 SW8       30.21F
RICHMOND +     SUNNY     68  46  45 SW13      30.25S

$$

INZ060-061-067>069-081>083-085>088-211800-
SOUTHWEST INDIANA

CITY           SKY/WX    TMP DP  RH WIND       PRES   REMARKS
EVANSVILLE     MOSUNNY   71  51  49 S8        30.19F
HUNTINGBURG +  MOSUNNY   68  51  54 S10       30.21F

$$

INZ062-063-066-070>080-084-089>092-211800-
SOUTH CENTRAL AND SOUTHEAST INDIANA

CITY           SKY/WX    TMP DP  RH WIND       PRES   REMARKS
BLOOMINGTON    CLOUDY    70  49  47 S10       30.20F
MADISON *+     MOSUNNY   70  46  43 S9        30.26S
SEYMOUR +      CLOUDY    70  52  52 S7        30.22F

$$




USA.gov is the U.S. government's official web portal to all federal, state and local government web resources and services.